When you browse on this site, cookies collect data to enhance your experience and personalize the content and advertising you see.
Visit our Privacy Policy to learn more. By continuing to use the site, you agree to this use of cookies and data.
  • In Portugal
  • List of Countries
  • For 7 days
  • Water Temperature
  • Satellite Maps
  • Weather Map
  • Weather Widgets
  • user-avatar
    Login

    Hourly Weather Sabha

    Today, 24 March, Sunday

    Time Temperature Precipitation Wind Pressure Humidity
    00:00 +19°C° 0 mm 4 mps 725 mmHg 22%
    01:00 +19°C° 0 mm 4 mps 725 mmHg 22%
    02:00 +18°C° 0 mm 4 mps 725 mmHg 23%
    03:00 +17°C° 0 mm 3 mps 725 mmHg 24%
    04:00 +17°C° 0 mm 3 mps 725 mmHg 26%
    05:00 +15°C° 0 mm 4 mps 725 mmHg 28%
    06:00 +15°C° 0 mm 4 mps 725 mmHg 29%
    07:00 +15°C° 0 mm 4 mps 726 mmHg 31%
    08:00 +17°C° 0 mm 4 mps 726 mmHg 32%
    09:00 +17°C° 0 mm 5 mps 726 mmHg 33%
    10:00 +17°C° 0 mm 5 mps 727 mmHg 34%
    11:00 +19°C° 0 mm 5 mps 726 mmHg 30%
    12:00 +20°C° 0 mm 5 mps 726 mmHg 27%
    13:00 +21°C° 0 mm 4 mps 726 mmHg 24%
    14:00 +22°C° 0 mm 5 mps 726 mmHg 22%
    15:00 +22°C° 0 mm 5 mps 726 mmHg 20%
    16:00 +23°C° 0 mm 5 mps 725 mmHg 19%
    17:00 +22°C° 0 mm 5 mps 725 mmHg 19%
    18:00 +21°C° 0 mm 5 mps 726 mmHg 20%
    19:00 +21°C° 0 mm 4 mps 726 mmHg 21%
    20:00 +20°C° 0 mm 5 mps 726 mmHg 24%
    21:00 +19°C° 0 mm 5 mps 727 mmHg 28%
    22:00 +19°C° 0 mm 5 mps 727 mmHg 32%
    23:00 +17°C° 0 mm 5 mps 727 mmHg 36%

    Tomorrow, 25 March, Monday

    Time Temperature Precipitation Wind Pressure Humidity
    00:00 +17°C° 0 mm 5 mps 727 mmHg 41%
    01:00 +17°C° 0 mm 4 mps 727 mmHg 45%
    02:00 +15°C° 0 mm 4 mps 727 mmHg 47%
    03:00 +15°C° 0 mm 4 mps 726 mmHg 50%
    04:00 +14°C° 0 mm 3 mps 726 mmHg 53%
    05:00 +14°C° 0 mm 4 mps 726 mmHg 56%
    06:00 +13°C° 0 mm 4 mps 726 mmHg 59%
    07:00 +13°C° 0 mm 4 mps 727 mmHg 62%
    08:00 +14°C° 0 mm 4 mps 727 mmHg 56%
    09:00 +17°C° 0 mm 4 mps 727 mmHg 50%
    10:00 +18°C° 0 mm 3 mps 728 mmHg 44%
    11:00 +19°C° 0 mm 3 mps 727 mmHg 39%
    12:00 +20°C° 0 mm 3 mps 727 mmHg 33%
    13:00 +21°C° 0 mm 2 mps 727 mmHg 28%
    14:00 +23°C° 0 mm 2 mps 726 mmHg 26%
    15:00 +23°C° 0 mm 2 mps 725 mmHg 24%
    16:00 +24°C° 0 mm 2 mps 725 mmHg 22%
    17:00 +23°C° 0 mm 1 mps 725 mmHg 23%
    18:00 +23°C° 0 mm 1 mps 725 mmHg 23%
    19:00 +23°C° 0 mm 1 mps 725 mmHg 24%
    20:00 +22°C° 0 mm 1 mps 725 mmHg 24%
    21:00 +21°C° 0 mm 1 mps 725 mmHg 25%
    22:00 +21°C° 0 mm 1 mps 726 mmHg 26%
    23:00 +20°C° 0 mm 1 mps 725 mmHg 26%

    Day after tomorrow, 26 March, Tuesday

    Time Temperature Precipitation Wind Pressure Humidity
    00:00 +20°C° 0 mm 1 mps 725 mmHg 26%
    01:00 +18°C° 0 mm 2 mps 725 mmHg 27%
    02:00 +18°C° 0 mm 2 mps 724 mmHg 27%
    03:00 +18°C° 0 mm 2 mps 724 mmHg 27%
    04:00 +17°C° 0 mm 2 mps 724 mmHg 27%
    05:00 +17°C° 0 mm 2 mps 724 mmHg 27%
    06:00 +17°C° 0 mm 2 mps 724 mmHg 26%
    07:00 +18°C° 0 mm 2 mps 725 mmHg 26%
    08:00 +19°C° 0 mm 3 mps 725 mmHg 23%
    09:00 +21°C° 0 mm 3 mps 726 mmHg 21%
    10:00 +24°C° 0 mm 3 mps 726 mmHg 19%
    11:00 +25°C° 0 mm 3 mps 726 mmHg 18%
    12:00 +26°C° 0 mm 2 mps 725 mmHg 17%
    13:00 +27°C° 0 mm 2 mps 725 mmHg 15%
    14:00 +27°C° 0 mm 2 mps 725 mmHg 15%
    15:00 +28°C° 0 mm 2 mps 724 mmHg 14%
    16:00 +28°C° 0 mm 2 mps 723 mmHg 13%
    17:00 +28°C° 0 mm 1 mps 724 mmHg 14%
    18:00 +27°C° 0 mm 1 mps 724 mmHg 15%
    19:00 +26°C° 0 mm 1 mps 724 mmHg 16%
    20:00 +25°C° 0 mm 1 mps 725 mmHg 16%
    21:00 +25°C° 0 mm 2 mps 725 mmHg 17%
    22:00 +25°C° 0 mm 3 mps 725 mmHg 17%
    23:00 +24°C° 0 mm 3 mps 725 mmHg 17%

    27 March, Wednesday

    Time Temperature Precipitation Wind Pressure Humidity
    00:00 +23°C° 0 mm 4 mps 725 mmHg 18%
    01:00 +22°C° 0 mm 4 mps 724 mmHg 18%
    02:00 +21°C° 0 mm 4 mps 724 mmHg 19%
    03:00 +21°C° 0 mm 5 mps 724 mmHg 19%
    04:00 +20°C° 0 mm 5 mps 724 mmHg 20%
    05:00 +20°C° 0 mm 5 mps 724 mmHg 20%
    06:00 +20°C° 0 mm 5 mps 724 mmHg 20%
    07:00 +20°C° 0 mm 6 mps 724 mmHg 20%
    08:00 +23°C° 0 mm 6 mps 725 mmHg 17%
    09:00 +26°C° 0 mm 5 mps 725 mmHg 15%
    10:00 +28°C° 0 mm 5 mps 726 mmHg 12%
    11:00 +30°C° 0 mm 6 mps 726 mmHg 11%
    12:00 +32°C° 0 mm 6 mps 725 mmHg 10%
    13:00 +34°C° 0 mm 6 mps 725 mmHg 9%
    14:00 +34°C° 0 mm 5 mps 724 mmHg 8%
    15:00 +35°C° 0 mm 5 mps 724 mmHg 8%
    16:00 +35°C° 0 mm 4 mps 724 mmHg 8%
    17:00 +34°C° 0 mm 4 mps 723 mmHg 8%
    18:00 +33°C° 0 mm 4 mps 723 mmHg 9%
    19:00 +32°C° 0 mm 5 mps 723 mmHg 10%
    20:00 +30°C° 0 mm 5 mps 723 mmHg 10%
    21:00 +29°C° 0 mm 6 mps 723 mmHg 10%
    22:00 +29°C° 0 mm 7 mps 723 mmHg 11%
    23:00 +29°C° 0 mm 7 mps 723 mmHg 11%

    28 March, Thursday

    Time Temperature Precipitation Wind Pressure Humidity
    00:00 +28°C° 0 mm 7 mps 723 mmHg 11%
    01:00 +28°C° 0 mm 7 mps 723 mmHg 11%
    02:00 +27°C° 0 mm 6 mps 722 mmHg 12%
    03:00 +26°C° 0 mm 5 mps 722 mmHg 13%
    04:00 +26°C° 0 mm 4 mps 722 mmHg 13%
    05:00 +25°C° 0 mm 4 mps 722 mmHg 14%
    06:00 +25°C° 0 mm 5 mps 722 mmHg 14%
    07:00 +25°C° 0 mm 5 mps 722 mmHg 14%
    08:00 +28°C° 0 mm 6 mps 722 mmHg 14%
    09:00 +33°C° 0 mm 7 mps 722 mmHg 13%
    10:00 +37°C° 0 mm 8 mps 722 mmHg 13%
    11:00 +38°C° 0 mm 10 mps 722 mmHg 11%
    12:00 +41°C° 0 mm 12 mps 721 mmHg 10%
    13:00 +43°C° 0 mm 13 mps 720 mmHg 9%
    14:00 +42°C° 0 mm 13 mps 720 mmHg 10%
    15:00 +42°C° 0 mm 13 mps 719 mmHg 11%
    16:00 +41°C° 0 mm 13 mps 719 mmHg 12%
    17:00 +39°C° 0 mm 10 mps 719 mmHg 13%
    18:00 +37°C° 0 mm 8 mps 720 mmHg 13%
    19:00 +35°C° 0 mm 6 mps 720 mmHg 14%
    20:00 +32°C° 0 mm 7 mps 721 mmHg 23%
    21:00 +28°C° 0 mm 9 mps 722 mmHg 33%
    22:00 +24°C° 0 mm 10 mps 723 mmHg 43%
    23:00 +22°C° 0 mm 9 mps 723 mmHg 48%

    29 March, Friday

    Time Temperature Precipitation Wind Pressure Humidity
    00:00 +21°C° 0 mm 9 mps 723 mmHg 53%
    01:00 +20°C° 0 mm 8 mps 723 mmHg 58%
    02:00 +18°C° 0 mm 8 mps 723 mmHg 59%
    03:00 +17°C° 0 mm 7 mps 724 mmHg 59%
    04:00 +17°C° 0 mm 7 mps 724 mmHg 60%
    05:00 +16°C° 0 mm 6 mps 725 mmHg 60%
    06:00 +16°C° 0 mm 6 mps 725 mmHg 59%
    07:00 +15°C° 0 mm 5 mps 726 mmHg 59%
    08:00 +16°C° 0 mm 5 mps 726 mmHg 55%
    09:00 +17°C° 0 mm 5 mps 726 mmHg 50%
    10:00 +19°C° 0 mm 5 mps 727 mmHg 46%
    11:00 +20°C° 0 mm 5 mps 726 mmHg 42%
    12:00 +21°C° 0 mm 4 mps 726 mmHg 39%
    13:00 +23°C° 0 mm 4 mps 726 mmHg 35%
    14:00 +23°C° 0 mm 4 mps 725 mmHg 33%
    15:00 +25°C° 0 mm 4 mps 725 mmHg 30%
    16:00 +25°C° 0 mm 4 mps 725 mmHg 27%
    17:00 +25°C° 0 mm 5 mps 725 mmHg 27%
    18:00 +23°C° 0 mm 5 mps 726 mmHg 27%
    19:00 +23°C° 0 mm 5 mps 726 mmHg 27%
    20:00 +22°C° 0 mm 5 mps 726 mmHg 28%
    21:00 +21°C° 0 mm 6 mps 727 mmHg 29%
    22:00 +20°C° 0 mm 6 mps 727 mmHg 30%
    23:00 +19°C° 0 mm 6 mps 727 mmHg 34%
    Show more